| time (UTC) | temp F | wind direction | speed knots | gust knots | rain 1hr in | rain 24hr in | rain mn in | humidity % | barometer mb |
| 20260505012030 | 61 | 334 | 8.7 | 13.0 | 0.00 | 0.00 | 0.00 | 41 | 1006.7 |
| 20260505011525 | 61 | 344 | 10.4 | 15.6 | 0.00 | 0.00 | 0.00 | 41 | 1006.6 |
| 20260505011023 | 61 | 336 | 10.4 | 14.8 | 0.00 | 0.00 | 0.00 | 41 | 1006.8 |
| 20260505010518 | 62 | 18 | 10.4 | 16.5 | 0.00 | 0.00 | 0.00 | 40 | 1006.5 |
| 20260505010015 | 62 | 15 | 9.6 | 20.0 | 0.00 | 0.00 | 0.00 | 39 | 1006.6 |
| 20260505005511 | 63 | 28 | 13.0 | 16.5 | 0.00 | 0.00 | 0.00 | 38 | 1006.5 |
| 20260505005009 | 64 | 359 | 13.9 | 21.7 | 0.00 | 0.00 | 0.00 | 38 | 1006.3 |
| 20260505004506 | 64 | 17 | 9.6 | 13.9 | 0.00 | 0.00 | 0.00 | 37 | 1006.3 |
| 20260505004002 | 65 | 358 | 12.2 | 16.5 | 0.00 | 0.00 | 0.00 | 37 | 1006.1 |
| 20260505003500 | 65 | 22 | 10.4 | 14.8 | 0.00 | 0.00 | 0.00 | 37 | 1006.1 |
| 20260505002956 | 65 | 20 | 7.8 | 15.6 | 0.00 | 0.00 | 0.00 | 36 | 1005.9 |
| 20260505002452 | 66 | 337 | 8.7 | 15.6 | 0.00 | 0.00 | 0.00 | 36 | 1005.7 |
| 20260505001950 | 66 | 276 | 12.2 | 15.6 | 0.00 | 0.00 | 0.00 | 35 | 1005.8 |
| 20260505001448 | 68 | 340 | 13.9 | 20.9 | 0.00 | 0.00 | 0.00 | 35 | 1005.7 |
| 20260505000945 | 68 | 8 | 7.0 | 8.7 | 0.00 | 0.00 | 0.00 | 36 | 1005.6 |
| 20260505000443 | 68 | 23 | 7.8 | 11.3 | 0.00 | 0.00 | 0.00 | 36 | 1005.5 |
| 20260504235939 | 69 | 319 | 7.8 | 12.2 | 0.00 | 0.00 | 0.00 | 36 | 1005.5 |
| 20260504235436 | 69 | 351 | 7.8 | 14.8 | 0.00 | 0.00 | 0.00 | 35 | 1005.4 |
| 20260504234932 | 69 | 10 | 10.4 | 15.6 | 0.00 | 0.00 | 0.00 | 35 | 1005.4 |
| 20260504234430 | 69 | 6 | 11.3 | 18.2 | 0.00 | 0.00 | 0.00 | 35 | 1005.3 |
| 20260504233926 | 69 | 312 | 9.6 | 13.0 | 0.00 | 0.00 | 0.00 | 35 | 1005.4 |
| 20260504233422 | 70 | 317 | 8.7 | 14.8 | 0.00 | 0.00 | 0.00 | 34 | 1005.3 |
| 20260504232919 | 70 | 350 | 6.1 | 11.3 | 0.00 | 0.00 | 0.00 | 34 | 1005.1 |
| 20260504232417 | 71 | 7 | 10.4 | 15.6 | 0.00 | 0.00 | 0.00 | 33 | 1004.9 |
| 20260504231914 | 71 | 273 | 8.7 | 14.8 | 0.00 | 0.00 | 0.00 | 33 | 1005.0 |
| 20260504231409 | 72 | 12 | 7.0 | 13.0 | 0.00 | 0.00 | 0.00 | 33 | 1004.7 |
| 20260504230906 | 72 | 0 | 9.6 | 13.9 | 0.00 | 0.00 | 0.00 | 32 | 1004.9 |
| 20260504230403 | 72 | 344 | 7.8 | 13.0 | 0.00 | 0.00 | 0.00 | 32 | 1004.8 |
| 20260504225902 | 73 | 334 | 9.6 | 13.9 | 0.00 | 0.00 | 0.00 | 32 | 1004.4 |
| 20260504225358 | 72 | 71 | 5.2 | 13.9 | 0.00 | 0.00 | 0.00 | 32 | 1004.3 |
| 20260504224856 | 73 | 346 | 7.8 | 12.2 | 0.00 | 0.00 | 0.00 | 32 | 1004.1 |
| 20260504224352 | 73 | 73 | 8.7 | 13.9 | 0.00 | 0.00 | 0.00 | 32 | 1004.0 |
| 20260504223849 | 73 | 31 | 9.6 | 14.8 | 0.00 | 0.00 | 0.00 | 32 | 1004.0 |
| 20260504223344 | 74 | 4 | 11.3 | 16.5 | 0.00 | 0.00 | 0.00 | 32 | 1003.8 |
| 20260504222841 | 75 | 18 | 11.3 | 14.8 | 0.00 | 0.00 | 0.00 | 32 | 1003.8 |
| 20260504222338 | 75 | 8 | 9.6 | 13.9 | 0.00 | 0.00 | 0.00 | 32 | 1003.6 |
| 20260504221837 | 75 | 46 | 8.7 | 13.9 | 0.00 | 0.00 | 0.00 | 31 | 1003.5 |
| 20260504221333 | 75 | 12 | 9.6 | 20.0 | 0.00 | 0.00 | 0.00 | 32 | 1003.6 |
| 20260504220830 | 76 | 324 | 8.7 | 13.9 | 0.00 | 0.00 | 0.00 | 32 | 1003.4 |
| 20260504220327 | 76 | 359 | 6.1 | 13.9 | 0.00 | 0.00 | 0.00 | 32 | 1003.0 |
| 20260504215824 | 76 | 1 | 7.8 | 12.2 | 0.00 | 0.00 | 0.00 | 32 | 1003.2 |
| 20260504215320 | 76 | 26 | 11.3 | 15.6 | 0.00 | 0.00 | 0.00 | 31 | 1003.2 |
| 20260504214816 | 76 | 50 | 6.1 | 13.9 | 0.00 | 0.00 | 0.00 | 32 | 1002.9 |
| 20260504214314 | 77 | 254 | 7.8 | 13.0 | 0.00 | 0.00 | 0.00 | 32 | 1003.1 |
| 20260504213810 | 77 | 37 | 5.2 | 13.0 | 0.00 | 0.00 | 0.00 | 32 | 1002.9 |
| 20260504213306 | 77 | 86 | 7.0 | 9.6 | 0.00 | 0.00 | 0.00 | 32 | 1003.1 |
| 20260504212804 | 77 | 26 | 7.0 | 11.3 | 0.00 | 0.00 | 0.00 | 32 | 1002.9 |
| 20260504212300 | 77 | 3 | 6.1 | 13.9 | 0.00 | 0.00 | 0.00 | 33 | 1003.0 |
| 20260504211758 | 77 | 356 | 7.0 | 12.2 | 0.00 | 0.00 | 0.00 | 33 | 1003.0 |
| 20260504211253 | 77 | 353 | 7.8 | 9.6 | 0.00 | 0.00 | 0.00 | 33 | 1003.0 |
| 20260504210751 | 77 | 56 | 6.1 | 12.2 | 0.00 | 0.00 | 0.00 | 34 | 1003.0 |
| 20260504210248 | 77 | 356 | 4.3 | 16.5 | 0.00 | 0.00 | 0.00 | 35 | 1002.7 |
| 20260504205745 | 78 | 77 | 8.7 | 12.2 | 0.00 | 0.00 | 0.00 | 34 | 1002.7 |
| 20260504205243 | 77 | 1 | 7.0 | 13.0 | 0.00 | 0.00 | 0.00 | 35 | 1002.7 |
| 20260504204741 | 78 | 319 | 6.1 | 8.7 | 0.00 | 0.00 | 0.00 | 35 | 1002.7 |
| 20260504204239 | 78 | 89 | 5.2 | 11.3 | 0.00 | 0.00 | 0.00 | 35 | 1002.7 |
| 20260504203738 | 77 | 266 | 5.2 | 9.6 | 0.00 | 0.00 | 0.00 | 36 | 1002.7 |
| 20260504203235 | 78 | 10 | 4.3 | 12.2 | 0.00 | 0.00 | 0.00 | 36 | 1002.6 |
| 20260504202735 | 79 | 48 | 6.1 | 8.7 | 0.00 | 0.00 | 0.00 | 36 | 1002.6 |
| 20260504202232 | 78 | 90 | 6.1 | 9.6 | 0.00 | 0.00 | 0.00 | 38 | 1002.5 |
| 20260504201729 | 79 | 61 | 7.8 | 13.9 | 0.00 | 0.00 | 0.00 | 36 | 1002.7 |
| 20260504201226 | 79 | 345 | 6.1 | 12.2 | 0.00 | 0.00 | 0.00 | 36 | 1002.6 |
| 20260504200724 | 79 | 3 | 11.3 | 14.8 | 0.00 | 0.00 | 0.00 | 36 | 1002.6 |
| 20260504200220 | 79 | 15 | 7.0 | 11.3 | 0.00 | 0.00 | 0.00 | 36 | 1002.6 |
| 20260504195716 | 79 | 326 | 6.1 | 14.8 | 0.00 | 0.00 | 0.00 | 35 | 1002.5 |
| 20260504195212 | 79 | 36 | 5.2 | 13.0 | 0.00 | 0.00 | 0.00 | 36 | 1002.4 |
| 20260504194710 | 79 | 120 | 5.2 | 9.6 | 0.00 | 0.00 | 0.00 | 36 | 1002.6 |
| 20260504194206 | 80 | 1 | 7.0 | 12.2 | 0.00 | 0.00 | 0.00 | 37 | 1002.6 |
| 20260504193702 | 80 | 345 | 5.2 | 11.3 | 0.00 | 0.00 | 0.00 | 35 | 1002.3 |
| 20260504193200 | 80 | 45 | 4.3 | 11.3 | 0.00 | 0.00 | 0.00 | 35 | 1002.3 |
| 20260504192658 | 80 | 91 | 2.6 | 13.0 | 0.00 | 0.00 | 0.00 | 35 | 1002.2 |
| 20260504192156 | 80 | 99 | 4.3 | 8.7 | 0.00 | 0.00 | 0.00 | 34 | 1002.3 |
| 20260504191654 | 80 | 198 | 6.1 | 14.8 | 0.00 | 0.00 | 0.00 | 34 | 1002.1 |
| 20260504191150 | 80 | 324 | 2.6 | 9.6 | 0.00 | 0.00 | 0.00 | 35 | 1002.2 |
| 20260504190646 | 80 | 73 | 4.3 | 8.7 | 0.00 | 0.00 | 0.00 | 34 | 1002.1 |
| 20260504190143 | 81 | 252 | 4.3 | 11.3 | 0.00 | 0.00 | 0.00 | 33 | 1002.3 |
| 20260504185639 | 81 | 275 | 2.6 | 7.0 | 0.00 | 0.00 | 0.00 | 33 | 1002.0 |
| 20260504185136 | 82 | 15 | 4.3 | 12.2 | 0.00 | 0.00 | 0.00 | 32 | 1001.8 |
| 20260504184632 | 81 | 198 | 0.9 | 7.8 | 0.00 | 0.00 | 0.00 | 32 | 1001.9 |
| 20260504184127 | 81 | 64 | 6.1 | 11.3 | 0.00 | 0.00 | 0.00 | 33 | 1001.9 |
| 20260504183624 | 81 | 10 | 3.5 | 7.0 | 0.00 | 0.00 | 0.00 | 32 | 1001.6 |
| 20260504183122 | 81 | 8 | 5.2 | 12.2 | 0.00 | 0.00 | 0.00 | 32 | 1002.0 |
| 20260504182619 | 80 | 321 | 6.1 | 7.8 | 0.00 | 0.00 | 0.00 | 33 | 1001.9 |
| 20260504182117 | 80 | 359 | 3.5 | 13.9 | 0.00 | 0.00 | 0.00 | 32 | 1002.0 |
| 20260504181614 | 79 | 13 | 3.5 | 11.3 | 0.00 | 0.00 | 0.00 | 33 | 1001.8 |
| 20260504181111 | 81 | 305 | 4.3 | 12.2 | 0.00 | 0.00 | 0.00 | 33 | 1002.0 |
| 20260504180610 | 82 | 318 | 2.6 | 6.1 | 0.00 | 0.00 | 0.00 | 32 | 1001.9 |
| 20260504180109 | 82 | 59 | 6.1 | 7.8 | 0.00 | 0.00 | 0.00 | 31 | 1001.9 |
| 20260504175606 | 81 | 291 | 3.5 | 7.8 | 0.00 | 0.00 | 0.00 | 32 | 1002.0 |
| 20260504175102 | 81 | 345 | 6.1 | 11.3 | 0.00 | 0.00 | 0.00 | 32 | 1002.0 |
| 20260504174600 | 81 | 72 | 0.9 | 3.5 | 0.00 | 0.00 | 0.00 | 32 | 1002.1 |
| 20260504174057 | 81 | 239 | 5.2 | 8.7 | 0.00 | 0.00 | 0.00 | 32 | 1002.2 |
| 20260504173553 | 80 | 166 | 0.9 | 6.1 | 0.00 | 0.00 | 0.00 | 34 | 1002.1 |
| 20260504173051 | 80 | 189 | 2.6 | 8.7 | 0.00 | 0.00 | 0.00 | 33 | 1002.2 |
| 20260504172547 | 79 | 1 | 2.6 | 7.8 | 0.00 | 0.00 | 0.00 | 34 | 1002.1 |
| 20260504172044 | 79 | 323 | 6.1 | 8.7 | 0.00 | 0.00 | 0.00 | 33 | 1002.3 |
| 20260504171541 | 79 | 252 | 4.3 | 13.0 | 0.00 | 0.00 | 0.00 | 33 | 1002.1 |
| 20260504171038 | 79 | 292 | 5.2 | 11.3 | 0.00 | 0.00 | 0.00 | 34 | 1002.3 |
| 20260504170533 | 78 | 194 | 2.6 | 5.2 | 0.00 | 0.00 | 0.00 | 37 | 1002.2 |
| 20260504150917 | 71 | 209 | 3.5 | 5.2 | 0.00 | 0.00 | 0.00 | 43 | 1002.3 |
| 20260504150414 | 70 | 201 | 1.7 | 3.5 | 0.00 | 0.00 | 0.00 | 43 | 1002.4 |
| 20260504140841 | 64 | 42 | 3.5 | 5.2 | 0.00 | 0.00 | 0.00 | 51 | 1003.0 |
| 20260504140336 | 63 | 116 | 0.0 | 0.0 | 0.00 | 0.00 | 0.00 | 53 | 1002.9 |
| 20260504130805 | 54 | 128 | 1.7 | 3.5 | 0.00 | 0.00 | 0.00 | 72 | 1002.8 |
| 20260504130301 | 54 | 111 | 1.7 | 1.7 | 0.00 | 0.00 | 0.00 | 73 | 1003.0 |
| 20260504120225 | 48 | 168 | 0.0 | 0.0 | 0.00 | 0.00 | 0.00 | 86 | 1002.7 |
| 20260504110652 | 48 | 153 | 0.0 | 0.0 | 0.00 | 0.00 | 0.00 | 84 | 1002.9 |
| 20260504110149 | 48 | 165 | 0.0 | 0.0 | 0.00 | 0.00 | 0.00 | 85 | 1003.0 |
| 20260504100615 | 47 | 167 | 0.0 | 0.0 | 0.00 | 0.00 | 0.00 | 85 | 1003.1 |
| 20260504100113 | 48 | 167 | 0.0 | 0.0 | 0.00 | 0.00 | 0.00 | 85 | 1003.0 |
| 20260504081506 | 50 | 167 | 0.0 | 0.0 | 0.00 | 0.00 | 0.00 | 80 | 1004.3 |
| 20260504081001 | 50 | 167 | 0.0 | 0.0 | 0.00 | 0.00 | 0.00 | 80 | 1004.6 |
| 20260504080458 | 50 | 165 | 0.0 | 0.0 | 0.00 | 0.00 | 0.00 | 80 | 1004.3 |
| 20260504050311 | 55 | 167 | 0.0 | 0.0 | 0.00 | 0.00 | 0.00 | 66 | 1007.0 |
| 20260504045808 | 56 | 167 | 0.0 | 0.0 | 0.00 | 0.00 | 0.00 | 65 | 1006.9 |
| 20260504045308 | 57 | 167 | 0.0 | 0.0 | 0.00 | 0.00 | 0.00 | 65 | 1006.9 |
| 20260504044806 | 57 | 169 | 0.0 | 0.0 | 0.00 | 0.00 | 0.00 | 64 | 1007.0 |
| 20260504044303 | 57 | 167 | 0.0 | 0.0 | 0.00 | 0.00 | 0.00 | 65 | 1007.0 |
| 20260504043800 | 57 | 167 | 0.0 | 0.0 | 0.00 | 0.00 | 0.00 | 63 | 1007.3 |
| 20260504043257 | 57 | 167 | 0.0 | 0.0 | 0.00 | 0.00 | 0.00 | 63 | 1007.0 |
| 20260504042755 | 58 | 167 | 0.0 | 0.0 | 0.00 | 0.00 | 0.00 | 62 | 1007.2 |
| 20260504042251 | 58 | 167 | 0.0 | 0.0 | 0.00 | 0.00 | 0.00 | 62 | 1007.0 |
| 20260504041747 | 58 | 168 | 0.0 | 0.0 | 0.00 | 0.00 | 0.00 | 62 | 1007.2 |
| 20260504041243 | 59 | 167 | 0.0 | 0.0 | 0.00 | 0.00 | 0.00 | 62 | 1007.2 |
| 20260504040739 | 59 | 167 | 0.0 | 0.0 | 0.00 | 0.00 | 0.00 | 61 | 1007.4 |
| 20260504040237 | 59 | 166 | 0.0 | 0.0 | 0.00 | 0.00 | 0.00 | 60 | 1007.6 |
| 20260504035733 | 59 | 168 | 0.0 | 0.0 | 0.00 | 0.00 | 0.00 | 60 | 1007.4 |
| 20260504035231 | 59 | 169 | 0.0 | 0.0 | 0.00 | 0.00 | 0.00 | 59 | 1007.6 |
| 20260504034728 | 60 | 166 | 0.0 | 0.0 | 0.00 | 0.00 | 0.00 | 58 | 1007.6 |
| 20260504034225 | 60 | 165 | 0.0 | 0.0 | 0.00 | 0.00 | 0.00 | 58 | 1007.8 |
| 20260504033723 | 60 | 165 | 0.0 | 0.0 | 0.00 | 0.00 | 0.00 | 57 | 1007.7 |
| 20260504033220 | 60 | 168 | 0.0 | 0.0 | 0.00 | 0.00 | 0.00 | 57 | 1007.9 |
| 20260504032717 | 61 | 166 | 0.0 | 0.0 | 0.00 | 0.00 | 0.00 | 56 | 1007.7 |
| 20260504032214 | 61 | 167 | 0.0 | 0.0 | 0.00 | 0.00 | 0.00 | 55 | 1007.8 |
| 20260504031711 | 62 | 168 | 0.0 | 0.0 | 0.00 | 0.00 | 0.00 | 54 | 1007.8 |
| 20260504031208 | 62 | 167 | 0.0 | 0.0 | 0.00 | 0.00 | 0.00 | 53 | 1008.0 |
| 20260504030704 | 62 | 168 | 0.0 | 0.0 | 0.00 | 0.00 | 0.00 | 52 | 1008.0 |
| 20260504030201 | 62 | 170 | 0.0 | 0.0 | 0.00 | 0.00 | 0.00 | 52 | 1008.0 |
| 20260504025657 | 62 | 169 | 0.0 | 0.0 | 0.00 | 0.00 | 0.00 | 52 | 1008.0 |
| 20260504025154 | 62 | 165 | 0.0 | 0.0 | 0.00 | 0.00 | 0.00 | 52 | 1008.0 |
| 20260504024652 | 62 | 167 | 0.0 | 0.0 | 0.00 | 0.00 | 0.00 | 51 | 1007.9 |
| 20260504024148 | 63 | 167 | 0.0 | 0.0 | 0.00 | 0.00 | 0.00 | 51 | 1008.0 |
| 20260504023645 | 63 | 169 | 0.0 | 0.0 | 0.00 | 0.00 | 0.00 | 50 | 1007.9 |
| 20260504023141 | 63 | 166 | 0.0 | 0.0 | 0.00 | 0.00 | 0.00 | 50 | 1007.8 |
| 20260504022637 | 64 | 167 | 0.0 | 0.0 | 0.00 | 0.00 | 0.00 | 49 | 1008.0 |
| 20260504022133 | 64 | 168 | 0.0 | 0.0 | 0.00 | 0.00 | 0.00 | 48 | 1008.1 |
| 20260504021631 | 65 | 170 | 0.0 | 0.0 | 0.00 | 0.00 | 0.00 | 48 | 1008.1 |
| 20260504021127 | 65 | 170 | 0.0 | 0.0 | 0.00 | 0.00 | 0.00 | 47 | 1008.0 |
| 20260504020625 | 65 | 170 | 0.0 | 0.0 | 0.00 | 0.00 | 0.00 | 47 | 1008.1 |
| 20260504020120 | 65 | 170 | 0.0 | 0.0 | 0.00 | 0.00 | 0.00 | 46 | 1008.2 |
| 20260504015617 | 66 | 171 | 0.0 | 0.0 | 0.00 | 0.00 | 0.00 | 46 | 1008.1 |
| 20260504015114 | 66 | 169 | 0.0 | 0.0 | 0.00 | 0.00 | 0.00 | 45 | 1008.3 |
| 20260504014609 | 66 | 167 | 0.0 | 0.0 | 0.00 | 0.00 | 0.00 | 45 | 1008.2 |
| 20260504014107 | 67 | 170 | 0.0 | 0.0 | 0.00 | 0.00 | 0.00 | 44 | 1008.3 |
| 20260504013604 | 68 | 167 | 0.0 | 0.0 | 0.00 | 0.00 | 0.00 | 44 | 1008.3 |
| 20260504013101 | 68 | 170 | 0.0 | 0.0 | 0.00 | 0.00 | 0.00 | 42 | 1008.3 |
| 20260504012558 | 69 | 171 | 0.0 | 0.0 | 0.00 | 0.00 | 0.00 | 41 | 1008.2 |
| 20260504012056 | 69 | 170 | 0.0 | 0.9 | 0.00 | 0.00 | 0.00 | 40 | 1008.2 |